カタログに戻る

FENGYUN 1C DEB

運用中PO
NORAD 31356·DEBRIS·🇨🇳 China

打ち上げ May 10, 1999 から Taiyuan Satellite Launch Center

Loading…

次のパス (今後24時間)

TLE

最新Source: Space-Track

元期: Sep 13, 2026, 05:09 UTC

1 31356U 99025BRL 26256.21514557  .00017184  00000-0  20548-2 0  9996
2 31356  98.6504  42.1658 0025844 118.2835 242.0989 14.84005275691814

AllMySatでFENGYUN 1C DEBをリアルタイム追跡

Download on the App Store